| time (UTC) | temp F | wind direction | speed knots | gust knots | rain 1hr in | rain 24hr in | rain mn in | humidity % | barometer mb |
| 20260507124547 | 63 | 136 | 7.0 | 9.6 | 0.00 | 0.00 | 0.00 | 78 | 1014.5 |
| 20260507123037 | 63 | 132 | 7.0 | 10.4 | 0.00 | 0.00 | 0.00 | 78 | 1014.5 |
| 20260507121543 | 63 | 119 | 7.0 | 8.7 | 0.00 | 0.00 | 0.00 | 78 | 1014.6 |
| 20260507120045 | 64 | 132 | 5.2 | 7.0 | 0.00 | 0.00 | 0.00 | 78 | 1014.5 |
| 20260507114543 | 64 | 132 | 4.3 | 7.0 | 0.00 | 0.01 | 0.00 | 78 | 1014.3 |
| 20260507113042 | 64 | 150 | 4.3 | 7.0 | 0.00 | 0.01 | 0.00 | 79 | 1014.5 |
| 20260507111537 | 63 | 148 | 5.2 | 8.7 | 0.00 | 0.01 | 0.00 | 81 | 1014.6 |
| 20260507110036 | 63 | 130 | 6.1 | 9.6 | 0.00 | 0.01 | 0.00 | 81 | 1014.6 |
| 20260507104543 | 63 | 126 | 7.8 | 11.3 | 0.00 | 0.01 | 0.00 | 81 | 1014.7 |
| 20260507103043 | 63 | 124 | 9.6 | 11.3 | 0.00 | 0.01 | 0.00 | 81 | 1014.7 |
| 20260507101540 | 64 | 134 | 8.7 | 12.2 | 0.00 | 0.01 | 0.00 | 80 | 1014.7 |
| 20260507100041 | 64 | 149 | 8.7 | 13.0 | 0.00 | 0.01 | 0.00 | 80 | 1014.8 |
| 20260507094538 | 63 | 142 | 11.3 | 14.8 | 0.00 | 0.01 | 0.00 | 79 | 1014.5 |
| 20260507093049 | 64 | 140 | 10.4 | 13.9 | 0.00 | 0.01 | 0.00 | 79 | 1014.5 |
| 20260507091549 | 63 | 135 | 10.4 | 12.2 | 0.00 | 0.01 | 0.00 | 78 | 1014.4 |
| 20260507090040 | 64 | 121 | 8.7 | 11.3 | 0.00 | 0.01 | 0.00 | 75 | 1014.1 |
| 20260507084539 | 64 | 175 | 4.3 | 7.8 | 0.00 | 0.01 | 0.00 | 74 | 1013.9 |
| 20260507083036 | 65 | 165 | 4.3 | 7.8 | 0.00 | 0.01 | 0.00 | 74 | 1013.8 |
| 20260507081544 | 64 | 100 | 1.7 | 3.5 | 0.00 | 0.01 | 0.00 | 70 | 1013.9 |
| 20260507080044 | 64 | 98 | 2.6 | 5.2 | 0.00 | 0.01 | 0.00 | 69 | 1014.0 |
| 20260507074557 | 64 | 102 | 2.6 | 4.3 | 0.00 | 0.01 | 0.00 | 68 | 1014.2 |
| 20260507073036 | 64 | 148 | 1.7 | 3.5 | 0.00 | 0.01 | 0.00 | 65 | 1014.4 |
| 20260507071543 | 64 | 76 | 1.7 | 6.1 | 0.00 | 0.01 | 0.00 | 64 | 1014.3 |
| 20260507070043 | 64 | 85 | 2.6 | 5.2 | 0.00 | 0.01 | 0.00 | 65 | 1014.3 |
| 20260507064540 | 64 | 109 | 6.1 | 8.7 | 0.00 | 0.01 | 0.00 | 65 | 1013.9 |
| 20260507063039 | 65 | 245 | 0.9 | 6.1 | 0.00 | 0.01 | 0.00 | 62 | 1013.8 |
| 20260507061538 | 64 | 236 | 0.9 | 6.1 | 0.00 | 0.01 | 0.00 | 65 | 1013.7 |
| 20260507060039 | 63 | 257 | 3.5 | 7.8 | 0.00 | 0.01 | 0.00 | 68 | 1013.7 |
| 20260507054542 | 62 | 213 | 0.0 | 3.5 | 0.00 | 0.01 | 0.00 | 70 | 1013.5 |
| 20260507053043 | 61 | 261 | 1.7 | 7.8 | 0.00 | 0.01 | 0.00 | 72 | 1013.2 |
| 20260507051542 | 61 | 286 | 2.6 | 11.3 | 0.00 | 0.01 | 0.00 | 71 | 1013.0 |
| 20260507050039 | 59 | 315 | 7.0 | 12.2 | 0.00 | 0.01 | 0.00 | 77 | 1012.7 |
| 20260507044544 | 56 | 199 | 3.5 | 7.8 | 0.00 | 0.01 | 0.00 | 79 | 1012.5 |
| 20260507043036 | 55 | 259 | 7.0 | 9.6 | 0.00 | 0.01 | 0.00 | 78 | 1012.5 |
| 20260507041540 | 56 | 289 | 3.5 | 6.1 | 0.00 | 0.01 | 0.00 | 78 | 1012.4 |
| 20260507040045 | 55 | 269 | 4.3 | 6.1 | 0.00 | 0.01 | 0.00 | 78 | 1012.6 |
| 20260507034542 | 56 | 225 | 0.9 | 7.8 | 0.00 | 0.01 | 0.00 | 77 | 1012.5 |
| 20260507033042 | 56 | 275 | 3.5 | 6.1 | 0.00 | 0.01 | 0.00 | 76 | 1012.4 |
| 20260507031546 | 57 | 266 | 2.6 | 9.6 | 0.00 | 0.01 | 0.00 | 75 | 1012.5 |
| 20260507030047 | 57 | 273 | 2.6 | 8.7 | 0.00 | 0.01 | 0.00 | 74 | 1012.7 |
| 20260507024544 | 59 | 215 | 4.3 | 8.7 | 0.00 | 0.01 | 0.00 | 69 | 1012.6 |
| 20260507023040 | 60 | 238 | 5.2 | 8.7 | 0.00 | 0.01 | 0.00 | 66 | 1012.5 |
| 20260507021539 | 61 | 290 | 5.2 | 10.4 | 0.00 | 0.01 | 0.00 | 66 | 1012.5 |
| 20260507020039 | 61 | 247 | 4.3 | 10.4 | 0.00 | 0.01 | 0.00 | 62 | 1012.4 |
| 20260507014547 | 59 | 304 | 4.3 | 12.2 | 0.00 | 0.03 | 0.00 | 67 | 1012.2 |
| 20260507013036 | 62 | 312 | 5.2 | 11.3 | 0.00 | 0.03 | 0.00 | 59 | 1012.1 |
| 20260507011535 | 60 | 279 | 2.6 | 9.6 | 0.00 | 0.03 | 0.00 | 68 | 1012.1 |
| 20260507010044 | 59 | 240 | 7.8 | 12.2 | 0.00 | 0.03 | 0.00 | 69 | 1012.1 |
| 20260507004540 | 62 | 275 | 1.7 | 12.2 | 0.00 | 0.11 | 0.00 | 61 | 1012.3 |
| 20260507003048 | 61 | 232 | 4.3 | 11.3 | 0.00 | 0.11 | 0.00 | 63 | 1012.3 |
| 20260507001544 | 62 | 242 | 3.5 | 7.8 | 0.00 | 0.11 | 0.00 | 60 | 1012.1 |
| 20260507000043 | 60 | 277 | 5.2 | 10.4 | 0.00 | 0.11 | 0.00 | 66 | 1012.1 |
| 20260506234543 | 60 | 259 | 6.1 | 10.4 | 0.00 | 0.11 | 0.00 | 64 | 1012.4 |
| 20260506233042 | 60 | 250 | 6.1 | 10.4 | 0.00 | 0.11 | 0.00 | 65 | 1012.5 |
| 20260506231543 | 60 | 259 | 7.0 | 10.4 | 0.00 | 0.11 | 0.00 | 64 | 1012.4 |
| 20260506230036 | 61 | 231 | 5.2 | 12.2 | 0.00 | 0.11 | 0.00 | 61 | 1012.3 |
| 20260506224543 | 63 | 9 | 6.1 | 12.2 | 0.00 | 0.13 | 0.00 | 55 | 1012.3 |
| 20260506223040 | 59 | 259 | 7.0 | 11.3 | 0.00 | 0.13 | 0.00 | 69 | 1012.4 |
| 20260506221539 | 61 | 294 | 4.3 | 9.6 | 0.00 | 0.13 | 0.00 | 65 | 1012.4 |
| 20260506220041 | 63 | 301 | 3.5 | 17.4 | 0.00 | 0.13 | 0.00 | 55 | 1012.3 |
| 20260506214538 | 60 | 244 | 6.1 | 9.6 | 0.00 | 0.14 | 0.13 | 61 | 1012.2 |
| 20260506213036 | 59 | 245 | 3.5 | 7.0 | 0.00 | 0.14 | 0.13 | 67 | 1012.1 |
| 20260506211544 | 59 | 275 | 4.3 | 8.7 | 0.00 | 0.14 | 0.13 | 69 | 1012.2 |
| 20260506210041 | 57 | 266 | 3.5 | 7.8 | 0.00 | 0.14 | 0.13 | 71 | 1012.2 |
| 20260506204544 | 58 | 286 | 2.6 | 7.0 | 0.00 | 0.22 | 0.13 | 71 | 1012.2 |
| 20260506203037 | 57 | 259 | 3.5 | 6.1 | 0.00 | 0.22 | 0.13 | 71 | 1012.4 |
| 20260506201536 | 58 | 258 | 1.7 | 6.1 | 0.00 | 0.22 | 0.13 | 70 | 1012.3 |
| 20260506200043 | 58 | 268 | 4.3 | 6.1 | 0.00 | 0.22 | 0.13 | 69 | 1012.1 |
| 20260506194540 | 59 | 274 | 3.5 | 7.0 | 0.00 | 0.31 | 0.13 | 67 | 1011.8 |
| 20260506193039 | 60 | 263 | 1.7 | 5.2 | 0.00 | 0.31 | 0.13 | 67 | 1011.6 |
| 20260506191538 | 59 | 256 | 2.6 | 7.8 | 0.00 | 0.31 | 0.13 | 69 | 1011.4 |
| 20260506190037 | 62 | 236 | 3.5 | 6.1 | 0.00 | 0.31 | 0.13 | 62 | 1011.2 |
| 20260506184536 | 61 | 227 | 3.5 | 7.0 | 0.00 | 0.31 | 0.13 | 68 | 1011.2 |
| 20260506183042 | 62 | 206 | 2.6 | 6.1 | 0.00 | 0.31 | 0.13 | 67 | 1011.2 |
| 20260506181542 | 64 | 249 | 2.6 | 5.2 | 0.00 | 0.31 | 0.13 | 68 | 1011.0 |
| 20260506180055 | 65 | 234 | 2.6 | 5.2 | 0.00 | 0.31 | 0.13 | 75 | 1011.0 |
| 20260506174542 | 66 | 188 | 4.3 | 7.0 | 0.00 | 0.33 | 0.13 | 76 | 1010.8 |
| 20260506173040 | 65 | 195 | 5.2 | 10.4 | 0.00 | 0.33 | 0.13 | 73 | 1010.8 |
| 20260506171537 | 67 | 184 | 6.1 | 13.9 | 0.00 | 0.33 | 0.13 | 72 | 1010.7 |
| 20260506170053 | 69 | 183 | 6.1 | 18.2 | 0.00 | 0.33 | 0.13 | 63 | 1010.5 |
| 20260506164539 | 70 | 286 | 0.9 | 9.6 | 0.00 | 0.33 | 0.13 | 49 | 1010.6 |
| 20260506163057 | 70 | 306 | 1.7 | 9.6 | 0.00 | 0.33 | 0.13 | 45 | 1010.6 |
| 20260506161538 | 69 | 0 | 1.7 | 7.8 | 0.00 | 0.33 | 0.13 | 49 | 1010.6 |
| 20260506160040 | 68 | 269 | 1.7 | 8.7 | 0.00 | 0.33 | 0.13 | 55 | 1010.7 |
| 20260506154550 | 68 | 325 | 3.5 | 10.4 | 0.00 | 0.33 | 0.13 | 57 | 1010.8 |
| 20260506153049 | 68 | 272 | 6.1 | 15.6 | 0.00 | 0.33 | 0.13 | 54 | 1010.7 |
| 20260506151541 | 69 | 261 | 6.1 | 13.0 | 0.00 | 0.33 | 0.13 | 52 | 1010.7 |
| 20260506150041 | 69 | 288 | 7.8 | 15.6 | 0.00 | 0.33 | 0.13 | 53 | 1010.7 |
| 20260506144541 | 69 | 222 | 6.1 | 16.5 | 0.00 | 0.38 | 0.13 | 59 | 1010.6 |
| 20260506143047 | 69 | 294 | 7.0 | 20.9 | 0.00 | 0.38 | 0.13 | 61 | 1010.5 |
| 20260506141542 | 68 | 247 | 11.3 | 20.0 | 0.00 | 0.38 | 0.13 | 63 | 1010.8 |
| 20260506140039 | 68 | 292 | 7.8 | 16.5 | 0.00 | 0.38 | 0.13 | 68 | 1010.7 |
| 20260506134539 | 68 | 262 | 9.6 | 20.9 | 0.00 | 0.50 | 0.13 | 71 | 1010.9 |
| 20260506133037 | 68 | 274 | 8.7 | 14.8 | 0.00 | 0.50 | 0.13 | 72 | 1011.0 |
| 20260506131536 | 67 | 292 | 6.1 | 14.8 | 0.00 | 0.50 | 0.13 | 76 | 1011.0 |
| 20260506130035 | 66 | 260 | 11.3 | 18.2 | 0.00 | 0.50 | 0.13 | 75 | 1011.2 |